Hauptseite
METAR-TAF:

METAR-TAF

Flughäfen :

Bütgenbach, Belgien

Elsenborn

Breite: 50-28N, Länge: 006-11E, Höhe: 564 m

Beobachtung

Neuester Wetterbericht von vor 40 Minuten, um 18:25 UTC
Wind 8 kt aus Südwest
Temperatur 5°C
Luftfeuchtigkeit 100%
Luftdruck 1012 hPa
Sichtweite: 4100 m
feuchter Dunst

METAR: EBLB 211825Z AUTO 23008KT 4100 BR OVC002/// 05/05 Q1012 AMB

Zeit: 20:05 (19:05 UTC)


TAF: fehlend

Wetterbeobachtungen und Prognosen von mehr als 4000 Flughäfen (METAR und TAF Bericht).

Die verfügbaren Stationen werden durch gelbe und rote Markierungen auf der Karte dargestellt.

Führen Sie die Maus auf sie, um den Namen der Station zu sehen.

Darauf klicken, um die Beobachtung von Wetterbeobachtungen und Prognosen zu sehen.

Um die Karte zu ändern : klicken Sie auf den grünen Tasten mit einem schwarzen Kreuz Zum Vergrößern, auf den grünen Button mit einem Gedankenstrich zu verkleinern, oder auf die grünen Pfeile für benachbarte Karten.


METAR-TAF: